Location: *
(58.7167°N, 26.1833°E)
Time: 15:08:55
(UTC+00:00)

Landsat 7 - Pass Details

Date: 25 August 2019
Orbit: 701 x 703 km, 98.1° (Epoch: 23 October)

Event Time Altitude Azimuth Distance (km) Brightness Sun altitude
Exits shadow 18:42:43 10° 142° (SE) 2,210 5.8 -8.3°
Reaches altitude 10° 18:42:49 10° 141° (SE) 2,172 5.7 -8.3°
Maximum altitude 18:47:27 54° 65° (ENE) 858 4.1 -8.8°
Drops below altitude 10° 18:52:07 10° 349° (N) 2,187 7.2 -9.3°
Sets 18:54:25 0° 345° (NNW) 3,110 8.1 -9.5°
